EW8178 Weather Reports


time (UTC)temp
C
wind
direction
speed
KPH
gust
KPH
rain 1hr
cm
rain 24hr
cm
rain mn
cm
humidity
%
barometer
mb
20260503004528 10 327 1.6 8.0 0.00 0.00 0.00 68 1010.9
20260503003024 9 302 1.6 11.3 0.00 0.00 0.00 69 1011.2
20260503001521 9 30 1.6 8.0 0.00 0.00 0.00 69 1011.3
20260503000019 9 337 1.6 8.0 0.00 0.00 0.00 69 1011.5
20260502234518 9 294 1.6 11.3 0.00 0.00 0.00 69 1011.7
20260502233010 10 328 1.6 8.0 0.00 0.00 0.00 70 1011.9
20260502231514 9 279 3.2 12.9 0.00 0.00 0.00 71 1012.0
20260502230008 9 258 1.6 9.7 0.00 0.00 0.00 71 1012.2
20260502224506 9 315 3.2 11.3 0.00 0.00 0.00 71 1012.3
20260502223003 9 272 3.2 14.5 0.00 0.00 0.00 71 1012.5
20260502221600 9 299 1.6 8.0 0.00 0.00 0.00 70 1012.5
20260502220059 9 281 3.2 11.3 0.00 0.00 0.00 70 1012.5
20260502214558 9 299 3.2 12.9 0.00 0.00 0.00 69 1012.5
20260502213105 9 286 3.2 14.5 0.00 0.00 0.00 69 1012.5
20260502211554 10 280 3.2 9.7 0.00 0.00 0.00 69 1012.5
20260502210052 10 271 1.6 6.4 0.00 0.00 0.00 69 1012.5
20260502204549 10 302 3.2 8.0 0.00 0.00 0.00 69 1012.6
20260502203016 10 298 1.6 16.1 0.00 0.00 0.00 68 1012.6
20260502201515 10 316 0.0 12.9 0.00 0.00 0.00 67 1012.7
20260502200017 10 273 1.6 8.0 0.00 0.00 0.00 67 1012.7
20260502194511 10 328 3.2 12.9 0.00 0.00 0.00 67 1012.8
20260502193020 10 302 0.0 11.3 0.00 0.00 0.00 67 1012.7
20260502191510 10 281 3.2 11.3 0.00 0.00 0.00 66 1012.6
20260502190006 10 274 3.2 12.9 0.00 0.00 0.00 66 1012.7
20260502184504 11 257 1.6 8.0 0.00 0.00 0.00 65 1012.7
20260502183003 11 276 1.6 11.3 0.00 0.00 0.00 65 1012.5
20260502181600 11 267 1.6 12.9 0.00 0.00 0.00 64 1012.5
20260502163042 15 300 3.2 16.1 0.00 0.00 0.00 54 1012.7
20260502161543 15 279 4.8 17.7 0.00 0.00 0.00 53 1012.7
20260502151532 18 247 4.8 12.9 0.00 0.00 0.00 45 1013.3
20260502123006 19 247 6.4 16.1 0.00 0.00 0.00 43 1014.9
20260502121505 20 262 4.8 19.3 0.00 0.00 0.00 42 1015.1
20260502114540 20 284 6.4 14.5 0.00 0.00 0.00 43 1015.3
20260502113038 20 197 6.4 22.5 0.00 0.00 0.00 43 1015.6
20260502111531 20 292 4.8 16.1 0.00 0.00 0.00 43 1015.7
20260502110029 20 260 3.2 12.9 0.00 0.00 0.00 42 1015.9
20260502104525 19 219 3.2 16.1 0.00 0.00 0.00 42 1016.1
20260502103050 19 271 6.4 16.1 0.00 0.00 0.00 45 1016.2
20260502101519 18 258 3.2 12.9 0.00 0.00 0.00 41 1016.5
20260502091505 18 261 4.8 16.1 0.00 0.00 0.00 44 1017.0
20260502071536 13 195 1.6 8.0 0.00 0.00 0.00 53 1017.8
20260502070033 13 285 1.6 6.4 0.00 0.00 0.00 53 1017.8
20260502064536 13 272 0.0 4.8 0.00 0.00 0.00 54 1017.9
20260502063027 12 279 0.0 4.8 0.00 0.00 0.00 57 1017.9
20260502061523 11 202 0.0 6.4 0.00 0.00 0.00 60 1018.0
20260502060023 10 331 0.0 6.4 0.00 0.00 0.00 63 1018.1
20260502054522 9 323 0.0 0.0 0.00 0.00 0.00 71 1018.1
20260502053021 7 323 0.0 3.2 0.00 0.00 0.00 73 1018.2
20260502051520 6 323 0.0 1.6 0.00 0.00 0.00 77 1018.3
20260502050018 5 323 0.0 3.2 0.00 0.00 0.00 78 1018.3
20260502044518 5 323 0.0 4.8 0.00 0.00 0.00 78 1018.2
20260502043019 5 322 1.6 4.8 0.00 0.00 0.00 78 1018.2
20260502041513 5 321 1.6 6.4 0.00 0.00 0.00 78 1018.2
20260502040013 5 317 1.6 4.8 0.00 0.00 0.00 78 1018.2
20260502034516 5 317 0.0 4.8 0.00 0.00 0.00 78 1018.3
20260502033012 4 333 0.0 8.0 0.00 0.00 0.00 80 1018.2
20260502031510 4 28 1.6 6.4 0.00 0.00 0.00 81 1018.2
20260502030009 4 56 1.6 4.8 0.00 0.00 0.00 82 1018.4
20260502024508 4 57 0.0 4.8 0.00 0.00 0.00 81 1018.4
20260502023008 4 58 3.2 4.8 0.00 0.00 0.00 82 1018.5
20260502021505 3 58 3.2 4.8 0.00 0.00 0.00 83 1018.5
20260502020005 3 59 3.2 4.8 0.00 0.00 0.00 84 1018.6
20260502014503 3 59 1.6 3.2 0.00 0.00 0.00 84 1018.6
20260502013001 3 59 0.0 1.6 0.00 0.00 0.00 84 1018.7
20260502011558 3 59 0.0 3.2 0.00 0.00 0.00 84 1018.8
20260502010058 3 59 0.0 4.8 0.00 0.00 0.00 84 1018.9